Location: Gleizolles
(44.4833°N, 6.7667°E)
Time: 14:40:06
(UTC+00:00)

deb Explorer IX - Pass Details

Date: 03 July 2024
Orbit: 510 x 878 km, 38.7° (Epoch: 21 July)

Event Time Altitude Azimuth Distance (km) Brightness Sun altitude
Rises 07:31:35 0° 266° (W) 2,641 ? 36.0°
Reaches altitude 10° 07:34:09 10° 249° (WSW) 1,785 ? 36.4°
Maximum altitude 07:37:14 21° 200° (SSW) 1,282 ? 37.0°
Drops below altitude 10° 07:40:30 10° 151° (SSE) 1,902 ? 37.5°
Sets 07:43:20 0° 135° (SE) 2,873 ? 38.0°
